Terminal Aerodrome Forecast
Issued by NWS Tampa Bay Area, FL

Home | Current Version | Previous Version | Text Only | Print | Product List | Glossary On
Versions: 1 2 3 4 5 6 7 8 9 10 11 12 13 14 15
751
FTUS42 KTBW 061133
TAFSRQ
TAF
KSRQ 061133Z 0612/0712 04005KT P6SM FEW070
     FM061500 33010KT P6SM SKC
     FM061800 30014G20KT P6SM SKC
     FM062300 31012KT P6SM SKC=

USA.gov is the U.S. government's official web portal to all federal, state and local government web resources and services.